Location: Unspecified
(52.4292°N, 19.3359°E)
Time: 23:55:09
(UTC+02:00)

SR - Pass Details

Date: 02 June 2024
Orbit: 580 x 858 km, 66.7° (Epoch: 12 June)

Event Time Altitude Azimuth Distance (km) Brightness Sun altitude
Rises 16:21:42 0° 217° (SW) 3,173 ? 38.5°
Reaches altitude 10° 16:24:09 10° 217° (SW) 2,208 ? 38.1°
Maximum altitude 16:29:10 89° 126° (SE) 686 ? 37.4°
Drops below altitude 10° 16:33:48 10° 40° (NE) 2,045 ? 36.7°
Sets 16:36:00 0° 40° (NE) 2,921 ? 36.4°
